KG4LKY-5 Weather Reports


time (UTC)temp
F
wind
direction
speed
knots
gust
knots
rain 1hr
in
rain 24hr
in
rain mn
in
humidity
%
barometer
mb
20260508214325 71 263 3.5 7.8 0.00 0.00 0.01 16 1012.7
20260508213824 71 263 2.6 7.8 0.00 0.00 0.01 17 1012.8
20260508213324 73 246 1.7 7.0 0.00 0.00 0.01 16 1012.8
20260508212824 71 281 3.5 6.1 0.00 0.00 0.01 23 1012.8
20260508211823 73 294 0.9 3.5 0.00 0.00 0.01 20 1012.7
20260508211323 71 269 4.3 8.7 0.00 0.00 0.01 20 1012.8
20260508210823 70 269 2.6 6.1 0.00 0.00 0.01 18 1012.9
20260508210322 71 204 1.7 6.1 0.00 0.00 0.01 19 1012.8
20260508205822 70 267 4.3 8.7 0.00 0.00 0.01 20 1012.8
20260508204822 70 264 3.5 8.7 0.00 0.00 0.01 19 1013.0
20260508204320 71 267 4.3 8.7 0.00 0.00 0.01 18 1013.2
20260508203819 70 262 2.6 5.2 0.00 0.00 0.01 18 1013.2
20260508202818 71 201 1.7 5.2 0.00 0.00 0.01 18 1013.5
20260508202318 71 259 1.7 5.2 0.00 0.00 0.01 24 1013.6
20260508201817 69 210 1.7 5.2 0.00 0.00 0.01 24 1013.7
20260508201317 69 252 4.3 11.3 0.00 0.00 0.01 24 1013.8
20260508200316 68 255 4.3 7.8 0.00 0.00 0.01 24 1014.1
20260508195816 68 270 5.2 13.0 0.00 0.00 0.01 29 1014.2
20260508195316 69 277 5.2 9.6 0.00 0.00 0.01 29 1014.2
20260508194816 69 270 3.5 7.0 0.00 0.00 0.01 23 1014.4
20260508194315 70 256 2.6 7.0 0.00 0.00 0.01 23 1014.5
20260508193813 70 264 2.6 8.7 0.00 0.00 0.01 28 1014.6
20260508193313 69 281 3.5 7.8 0.00 0.00 0.01 27 1014.8
20260508192813 71 166 3.5 8.7 0.00 0.00 0.01 21 1015.0
20260508192313 69 276 2.6 7.8 0.00 0.00 0.01 27 1015.2
20260508191812 68 167 2.6 7.0 0.00 0.00 0.01 23 1015.3
20260508191312 69 255 3.5 8.7 0.00 0.00 0.01 21 1015.4
20260508190811 68 271 1.7 4.3 0.00 0.00 0.01 21 1015.3
20260508190311 68 283 2.6 9.6 0.00 0.00 0.01 26 1015.6
20260508185811 69 264 3.5 7.0 0.00 0.00 0.01 26 1015.6
20260508185311 67 266 3.5 7.8 0.00 0.00 0.01 26 1015.6
20260508184810 67 277 2.6 6.1 0.00 0.00 0.01 23 1015.7
20260508184309 67 266 2.6 7.0 0.00 0.00 0.01 23 1015.7
20260508183808 68 256 2.6 6.1 0.00 0.00 0.01 22 1015.8
20260508182808 66 259 4.3 10.4 0.00 0.00 0.01 32 1015.9
20260508182308 67 277 2.6 6.1 0.00 0.00 0.01 29 1015.9
20260508181807 67 205 1.7 6.1 0.00 0.00 0.01 29 1016.1
20260508181307 67 252 1.7 5.2 0.00 0.00 0.01 27 1016.1
20260508175306 68 141 1.7 6.1 0.00 0.00 0.01 26 1016.5
20260508174806 67 325 0.9 5.2 0.00 0.00 0.01 26 1016.6
20260508174304 64 288 0.0 4.3 0.00 0.00 0.01 26 1016.8
20260508173804 66 273 3.5 7.0 0.00 0.00 0.01 28 1016.9
20260508173304 66 271 0.9 4.3 0.00 0.00 0.01 28 1017.0
20260508172803 64 256 3.5 7.0 0.00 0.00 0.01 28 1017.1
20260508172307 65 267 2.6 6.1 0.00 0.00 0.01 28 1017.1
20260508171803 66 274 1.7 6.1 0.00 0.00 0.01 28 1017.2
20260508170802 63 256 2.6 7.0 0.00 0.00 0.01 33 1017.3
20260508170302 65 273 1.7 4.3 0.00 0.00 0.01 33 1017.4
20260508165801 64 287 2.6 6.1 0.00 0.00 0.01 35 1017.4
20260508163758 65 174 2.6 5.2 0.00 0.00 0.01 34 1018.0
20260508162757 64 214 2.6 7.8 0.00 0.00 0.01 40 1018.2
20260508162256 64 139 1.7 7.8 0.00 0.00 0.01 40 1018.2
20260508160754 63 191 1.7 5.2 0.00 0.00 0.01 32 1018.6
20260508153752 61 201 0.9 7.0 0.00 0.00 0.01 41 1018.7
20260508153251 62 190 0.9 5.2 0.00 0.00 0.01 44 1018.8
20260508152751 62 149 3.5 7.8 0.00 0.00 0.01 44 1018.8
20260508152251 61 224 1.7 6.1 0.00 0.00 0.01 40 1018.7
20260508151750 61 176 1.7 7.0 0.00 0.00 0.01 40 1018.8
20260508151250 61 135 3.5 7.8 0.00 0.00 0.01 46 1018.9
20260508150750 61 179 2.6 6.1 0.00 0.00 0.01 43 1018.8
20260508150249 60 143 2.6 7.0 0.00 0.00 0.01 39 1018.9
20260508145749 59 198 2.6 7.0 0.00 0.00 0.01 46 1018.9
20260508145249 58 169 1.7 6.1 0.00 0.00 0.01 45 1019.0
20260508144748 61 183 3.5 7.0 0.00 0.00 0.01 41 1019.0
20260508144248 58 191 1.7 7.0 0.00 0.00 0.01 49 1019.1
20260508143748 58 166 1.7 7.0 0.00 0.00 0.01 47 1019.0
20260508143248 58 158 1.7 5.2 0.00 0.00 0.01 53 1019.0
20260508142747 57 253 1.7 4.3 0.00 0.00 0.01 57 1019.0
20260508141747 57 195 1.7 6.1 0.00 0.00 0.01 67 1019.0
20260508140747 55 197 0.0 3.5 0.00 0.00 0.01 70 1019.0
20260508140246 54 158 0.9 4.3 0.00 0.00 0.01 79 1018.9
20260508135745 54 163 0.0 1.7 0.00 0.00 0.01 81 1018.9
20260508135246 53 98 0.0 1.7 0.00 0.00 0.01 77 1018.9
20260508134745 53 174 0.9 2.6 0.00 0.00 0.01 83 1018.9
20260508133744 51 198 0.9 3.5 0.00 0.00 0.01 88 1018.8
20260508133245 50 249 0.0 2.6 0.00 0.00 0.01 92 1018.7
20260508132744 49 207 0.0 1.7 0.00 0.00 0.01 97 1018.7
20260508131743 48 0 0.0 0.0 0.00 0.00 0.01 100 1018.7
20260508131243 48 174 0.0 1.7 0.00 0.00 0.01 100 1018.7
20260508125745 47 284 0.0 3.5 0.00 0.00 0.01 100 1018.7
20260508125242 45 0 0.0 0.0 0.00 0.00 0.01 100 1018.6
20260508124742 45 0 0.0 0.0 0.00 0.00 0.01 100 1018.7
20260508124241 44 0 0.0 0.0 0.00 0.00 0.01 100 1018.6
20260508123741 42 0 0.0 0.0 0.00 0.00 0.01 100 1018.6
20260508123241 41 0 0.0 0.0 0.00 0.00 0.01 100 1018.5
20260508122740 42 0 0.0 0.0 0.00 0.00 0.01 100 1018.5
20260508122239 41 0 0.0 0.0 0.00 0.00 0.01 100 1018.5
20260508121239 39 0 0.0 0.0 0.00 0.00 0.01 100 1018.6
20260508120238 38 0 0.0 0.0 0.00 0.00 0.01 100 1018.6
20260508115237 37 0 0.0 0.0 0.00 0.00 0.01 100 1018.6
20260508114237 37 0 0.0 0.0 0.00 0.00 0.01 100 1018.4
20260508113737 36 0 0.0 0.0 0.00 0.00 0.01 100 1018.3
20260508113236 36 0 0.0 0.0 0.00 0.00 0.01 100 1018.3
20260508112736 35 0 0.0 0.0 0.00 0.00 0.01 100 1018.2
20260508111735 34 0 0.0 0.0 0.00 0.00 0.01 100 1018.1
20260508110735 34 0 0.0 0.0 0.00 0.00 0.01 100 1018.0
20260508110235 34 0 0.0 0.0 0.00 0.00 0.01 100 1017.8
20260508105734 34 0 0.0 0.0 0.00 0.00 0.01 100 1017.8
20260508105234 34 0 0.0 0.0 0.00 0.00 0.01 100 1017.8
20260508104734 34 0 0.0 0.0 0.00 0.00 0.01 100 1017.6
20260508104233 33 0 0.0 0.0 0.00 0.00 0.01 100 1017.6
20260508103733 33 0 0.0 0.0 0.00 0.00 0.01 100 1017.5
20260508103233 34 0 0.0 0.0 0.00 0.00 0.01 100 1017.5
20260508102733 34 0 0.0 0.0 0.00 0.00 0.01 100 1017.5
20260508102232 33 0 0.0 0.0 0.00 0.00 0.01 100 1017.4
20260508101732 34 0 0.0 0.0 0.00 0.00 0.01 100 1017.4
20260508101232 34 0 0.0 0.0 0.00 0.00 0.01 100 1017.3
20260508100731 33 0 0.0 0.0 0.00 0.00 0.01 100 1017.3
20260508100231 34 0 0.0 0.0 0.00 0.00 0.01 100 1017.4
20260508095231 33 0 0.0 0.0 0.00 0.00 0.00 100 1017.3
20260508094730 34 0 0.0 0.0 0.00 0.00 0.00 100 1017.3
20260508094230 35 0 0.0 0.0 0.00 0.00 0.00 100 1017.4
20260508093730 34 0 0.0 0.0 0.00 0.00 0.00 100 1017.4
20260508093229 34 0 0.0 0.0 0.00 0.00 0.00 100 1017.4
20260508092729 35 0 0.0 0.0 0.00 0.00 0.00 100 1017.3
20260508092229 35 0 0.0 0.0 0.00 0.00 0.00 100 1017.3
20260508091228 34 0 0.0 0.0 0.00 0.00 0.00 100 1017.4
20260508090728 34 0 0.0 0.0 0.00 0.00 0.00 100 1017.4
20260508085727 34 0 0.0 0.0 0.00 0.00 0.00 100 1017.4
20260508085227 34 0 0.0 0.0 0.00 0.00 0.00 100 1017.4
20260508084728 35 0 0.0 0.0 0.00 0.00 0.00 100 1017.3
20260508083726 35 0 0.0 0.0 0.00 0.00 0.00 100 1017.3
20260508083227 36 0 0.0 0.0 0.00 0.00 0.00 100 1017.2
20260508082726 36 0 0.0 0.0 0.00 0.00 0.00 100 1017.3
20260508081725 35 0 0.0 0.0 0.00 0.00 0.00 100 1017.2
20260508081225 35 0 0.0 0.0 0.00 0.00 0.00 100 1017.2
20260508080725 35 0 0.0 0.0 0.00 0.00 0.00 100 1017.2
20260508080224 36 0 0.0 0.0 0.00 0.00 0.00 100 1017.1
20260508075724 36 0 0.0 0.0 0.00 0.00 0.00 100 1017.1
20260508075224 37 0 0.0 0.0 0.00 0.00 0.00 100 1017.1
20260508074724 36 0 0.0 0.0 0.00 0.00 0.00 100 1017.2
20260508074223 37 0 0.0 0.0 0.00 0.00 0.00 100 1017.2
20260508073723 37 0 0.0 0.0 0.00 0.00 0.00 100 1017.2
20260508073223 37 0 0.0 0.0 0.00 0.00 0.00 100 1017.2
20260508072722 36 0 0.0 0.0 0.00 0.00 0.00 100 1017.2
20260508072222 36 0 0.0 0.0 0.00 0.00 0.00 100 1017.1
20260508071722 36 0 0.0 0.0 0.00 0.00 0.00 100 1017.0
20260508071222 37 0 0.0 0.0 0.00 0.00 0.00 100 1017.1
20260508070721 37 0 0.0 0.0 0.00 0.00 0.00 100 1017.1
20260508070221 37 0 0.0 0.0 0.00 0.00 0.00 100 1017.1
20260508065721 36 0 0.0 0.0 0.00 0.00 0.00 100 1017.2
20260508065220 36 0 0.0 0.0 0.00 0.00 0.00 100 1017.3
20260508064720 37 0 0.0 0.0 0.00 0.00 0.00 100 1017.3
20260508064220 37 0 0.0 0.0 0.00 0.00 0.00 100 1017.3
20260508063720 37 0 0.0 0.0 0.00 0.00 0.00 100 1017.2
20260508063219 37 0 0.0 0.0 0.00 0.00 0.00 100 1017.2
20260508062719 37 0 0.0 0.0 0.00 0.00 0.00 100 1017.1
20260508062219 38 0 0.0 0.0 0.00 0.00 0.00 100 1017.1
20260508061718 38 0 0.0 0.0 0.00 0.00 0.00 100 1017.2
20260508061218 37 0 0.0 0.0 0.00 0.00 0.00 100 1017.2
20260508060718 38 0 0.0 0.0 0.00 0.00 0.00 100 1017.3
20260508060218 38 0 0.0 0.0 0.00 0.00 0.00 100 1017.3
20260508055717 38 0 0.0 0.0 0.00 0.00 0.00 100 1017.4
20260508055217 38 0 0.0 0.0 0.00 0.00 0.00 100 1017.4
20260508054717 37 0 0.0 0.0 0.00 0.00 0.00 100 1017.4
20260508054216 38 0 0.0 0.0 0.00 0.00 0.00 100 1017.4
20260508053716 38 0 0.0 0.0 0.00 0.00 0.00 100 1017.5
20260508053216 38 0 0.0 0.0 0.00 0.00 0.00 100 1017.6
20260508052716 39 0 0.0 0.0 0.00 0.00 0.00 100 1017.6
20260508052215 39 0 0.0 0.0 0.00 0.00 0.00 100 1017.6
20260508051715 39 0 0.0 0.0 0.00 0.00 0.00 100 1017.7
20260508051215 39 0 0.0 0.0 0.00 0.00 0.00 100 1017.6
20260508050715 39 0 0.0 0.0 0.00 0.00 0.00 100 1017.6
20260508050214 40 0 0.0 0.0 0.00 0.00 0.00 100 1017.5
20260508045714 38 0 0.0 0.0 0.00 0.00 0.00 100 1017.5
20260508045214 39 0 0.0 0.0 0.00 0.00 0.00 100 1017.5
20260508044713 40 0 0.0 0.0 0.00 0.00 0.00 100 1017.3
20260508044213 39 0 0.0 0.0 0.00 0.00 0.00 100 1017.3
20260508043713 40 0 0.0 0.0 0.00 0.00 0.00 100 1017.2
20260508042712 40 0 0.0 0.0 0.00 0.00 0.00 100 1017.0
20260508042212 40 0 0.0 0.0 0.00 0.00 0.00 100 1017.0
20260508041712 41 0 0.0 0.0 0.00 0.00 0.00 100 1016.9
20260508041211 42 0 0.0 0.0 0.00 0.00 0.00 100 1016.9
20260508040711 40 0 0.0 0.0 0.00 0.00 0.00 100 1016.9
20260508040211 40 0 0.0 0.0 0.00 0.00 0.00 100 1016.9
20260508035710 41 0 0.0 0.0 0.00 0.00 0.00 100 1016.8
20260508034710 41 0 0.0 0.0 0.00 0.00 0.00 100 1016.7
20260508034210 42 0 0.0 0.0 0.00 0.00 0.00 100 1016.7
20260508033709 42 0 0.0 0.0 0.00 0.00 0.00 100 1016.8
20260508033209 42 0 0.0 0.0 0.00 0.00 0.00 100 1016.7
20260508032709 42 0 0.0 0.0 0.00 0.00 0.00 100 1016.7
20260508032209 44 0 0.0 0.0 0.00 0.00 0.00 100 1016.8
20260508031708 43 0 0.0 0.0 0.00 0.00 0.00 100 1016.9
20260508031208 43 0 0.0 0.0 0.00 0.00 0.00 100 1016.9
20260508030708 43 0 0.0 0.0 0.00 0.00 0.00 100 1016.8
20260508030207 43 0 0.0 0.0 0.00 0.00 0.00 100 1016.7
20260508025707 42 0 0.0 0.0 0.00 0.00 0.00 100 1016.7
20260508025208 44 0 0.0 0.0 0.00 0.00 0.00 100 1016.6
20260508024706 44 0 0.0 0.0 0.00 0.00 0.00 100 1016.6
20260508024206 43 0 0.0 0.0 0.00 0.00 0.00 100 1016.5
20260508023706 44 0 0.0 0.0 0.00 0.00 0.00 100 1016.4
20260508022705 44 0 0.0 0.0 0.00 0.00 0.00 100 1016.3
20260508022205 44 0 0.0 0.0 0.00 0.00 0.00 100 1016.3
20260508021705 45 0 0.0 0.0 0.00 0.00 0.00 100 1016.3
20260508021204 46 0 0.0 0.0 0.00 0.00 0.00 100 1016.2
20260508020704 45 0 0.0 0.0 0.00 0.00 0.00 100 1016.1
20260508020204 46 0 0.0 0.0 0.00 0.00 0.00 100 1016.0
20260508015704 46 0 0.0 0.0 0.00 0.00 0.00 100 1015.9
20260508014203 47 0 0.0 0.0 0.00 0.00 0.00 99 1015.6
20260508013703 47 0 0.0 0.0 0.00 0.00 0.00 96 1015.6
20260508013203 48 0 0.0 0.0 0.00 0.00 0.00 91 1015.4
20260508011701 49 0 0.0 0.0 0.00 0.00 0.00 82 1015.1
20260508011201 50 0 0.0 0.0 0.00 0.00 0.00 77 1015.1
20260508010701 51 0 0.0 0.0 0.00 0.00 0.00 70 1015.0
20260508005700 52 0 0.0 0.0 0.00 0.00 0.00 63 1015.0
20260508005201 52 0 0.0 0.0 0.00 0.00 0.00 63 1014.8
20260508004700 52 0 0.0 0.0 0.00 0.00 0.00 63 1014.8
20260508004159 53 0 0.0 0.0 0.00 0.00 0.00 61 1014.8
20260508003159 54 0 0.0 0.0 0.00 0.00 0.00 57 1014.7
20260508002658 54 0 0.0 0.0 0.00 0.00 0.00 56 1014.6
20260508001658 56 0 0.0 0.0 0.00 0.00 0.00 51 1014.5
20260508001158 56 0 0.0 0.0 0.00 0.00 0.00 55 1014.4
20260507235657 57 0 0.0 0.0 0.00 0.00 0.00 50 1014.5
20260507234156 60 329 0.9 4.3 0.00 0.00 0.00 37 1014.4
20260507233155 60 335 2.6 5.2 0.00 0.00 0.00 33 1014.3
20260507232655 61 356 4.3 7.0 0.00 0.00 0.00 30 1014.3
20260507232155 61 339 3.5 6.1 0.00 0.00 0.00 33 1014.2
20260507231655 61 338 3.5 6.1 0.00 0.00 0.00 33 1014.3
20260507231154 61 7 5.2 7.8 0.00 0.00 0.00 36 1014.3
20260507230654 63 325 4.3 9.6 0.00 0.00 0.00 33 1014.3
20260507230154 63 1 2.6 7.8 0.00 0.00 0.00 38 1014.4
20260507225653 61 329 4.3 7.8 0.00 0.00 0.00 30 1014.4
20260507225153 61 349 0.9 4.3 0.00 0.00 0.00 33 1014.4
20260507223652 63 336 4.3 11.3 0.00 0.00 0.00 36 1014.4